TimeEST,TemperatureF,Dew PointF,Humidity,Sea Level PressureIn,VisibilityMPH,Wind Direction,Wind SpeedMPH,Gust SpeedMPH,PrecipitationIn,Events,Conditions,WindDirDegrees,DateUTC
12:55 AM,33.3,25.2,72,30.17,10.0,Calm,Calm,-,N/A,,Overcast,0,2012-11-21 05:55:00
1:55 AM,33.6,25.7,73,30.18,10.0,NNW,4.6,-,N/A,,Overcast,330,2012-11-21 06:55:00
2:55 AM,34.3,26.6,73,30.18,10.0,NW,5.8,-,N/A,,Overcast,320,2012-11-21 07:55:00
3:55 AM,34.5,25.9,71,30.19,10.0,NNW,6.9,-,N/A,,Overcast,340,2012-11-21 08:55:00
4:55 AM,36.7,25.3,64,30.19,10.0,North,5.8,-,N/A,,Overcast,360,2012-11-21 09:55:00
5:55 AM,37.0,25.7,64,30.21,10.0,North,6.9,-,N/A,,Overcast,360,2012-11-21 10:55:00
6:55 AM,38.5,26.2,61,30.22,10.0,North,8.1,-,N/A,,Overcast,10,2012-11-21 11:55:00
7:55 AM,39.6,26.4,59,30.24,10.0,North,9.2,-,N/A,,Overcast,360,2012-11-21 12:55:00
8:55 AM,41.4,28.0,59,30.25,10.0,NNW,6.9,-,N/A,,Overcast,340,2012-11-21 13:55:00
9:55 AM,44.1,29.8,57,30.26,10.0,North,9.2,-,N/A,,Mostly Cloudy,350,2012-11-21 14:55:00
10:55 AM,45.7,32.2,59,30.25,10.0,NNE,4.6,-,N/A,,Overcast,30,2012-11-21 15:55:00
11:55 AM,48.0,34.5,60,30.23,10.0,Variable,3.5,-,N/A,,Mostly Cloudy,0,2012-11-21 16:55:00
12:32 PM,48.2,35.6,62,30.23,10.0,ENE,5.8,-,N/A,,Mostly Cloudy,60,2012-11-21 17:32:00
12:55 PM,48.4,35.8,62,30.23,10.0,East,5.8,-,N/A,,Mostly Cloudy,80,2012-11-21 17:55:00
1:55 PM,48.7,36.0,61,30.23,10.0,ENE,4.6,-,N/A,,Mostly Cloudy,70,2012-11-21 18:55:00
2:55 PM,49.1,36.0,61,30.23,10.0,NNE,5.8,-,N/A,,Mostly Cloudy,20,2012-11-21 19:55:00
3:55 PM,45.1,37.2,74,30.24,10.0,ENE,5.8,-,N/A,,Scattered Clouds,60,2012-11-21 20:55:00
4:55 PM,44.8,37.0,74,30.24,10.0,NE,4.6,-,N/A,,Mostly Cloudy,40,2012-11-21 21:55:00
5:55 PM,43.2,36.5,77,30.25,10.0,North,3.5,-,N/A,,Mostly Cloudy,10,2012-11-21 22:55:00
6:55 PM,42.4,36.1,78,30.26,10.0,NNE,4.6,-,N/A,,Mostly Cloudy,30,2012-11-21 23:55:00
7:55 PM,42.6,36.3,78,30.27,10.0,North,4.6,-,N/A,,Mostly Cloudy,10,2012-11-22 00:55:00
8:55 PM,38.3,34.2,85,30.27,10.0,NW,5.8,-,N/A,,Mostly Cloudy,320,2012-11-22 01:55:00
9:55 PM,37.0,34.2,89,30.27,10.0,NW,3.5,-,N/A,,Partly Cloudy,320,2012-11-22 02:55:00
10:42 PM,35.6,32.0,87,30.26,10.0,NW,5.8,-,N/A,,Mostly Cloudy,310,2012-11-22 03:42:00
10:55 PM,35.2,32.7,91,30.26,8.0,WNW,4.6,-,N/A,,Mostly Cloudy,300,2012-11-22 03:55:00
11:22 PM,33.8,32.0,93,30.26,8.0,WNW,5.8,-,N/A,,Scattered Clouds,300,2012-11-22 04:22:00
11:55 PM,33.8,30.7,89,30.26,8.0,NW,5.8,-,N/A,,Partly Cloudy,310,2012-11-22 04:55:00